Regional Weather Roundup
Issued by NWS Charleston, SC

Current Version | Previous Version | Graphics & Text | Print | Product List | Glossary On
Versions: 1 2 3 4 5 6 7 8 9 10 11 12 13 14 15 16 17 18 19 20 21 22 23 24 25 26 27 28 29 30 31 32 33 34 35 36 37 38 39 40 41 42 43 44 45 46 47 48 49 50
000 ASUS42 KCHS 222327 RWRCHS REGIONAL WEATHER ROUNDUP NATIONAL WEATHER SERVICE CHARLESTON SC 600 PM EST SUN JAN 22 2017 NOTE: "FAIR" INDICATES FEW OR NO CLOUDS BELOW 12,000 FEET WITH NO SIGNIFICANT WEATHER AND/OR OBSTRUCTIONS TO VISIBILITY. NOT ALL STATIONS ARE QUALITY CONTROLLED. USE DATA WITH CAUTION... ESPECIALLY DEWPOINT OBSERVATIONS. SCZ027-030-031-034>040-042>050-230000- ...SOUTHEAST SOUTH CAROLINA... CITY SKY/WX TMP DP RH WIND PRES REMARKS N CHARLESTON CLOUDY 61 59 93 S9 29.43F WATERFRONT PRK N/A 60 60 100 S7 29.45F MOUNT PLEASANT FAIR 61 61 100 SE8 29.43F FOG JOHNS ISLAND FAIR 61 61 100 SE9 29.43F PINOPOLIS N/A 61 61 100 SE7 29.33F MONCKS CORNER CLOUDY 59 57 94 S8 29.42F SUMMERVILLE CLOUDY N/A N/A N/A SE3 29.42F BEAUFORT MCAS TSTM 63 61 93 SE13 29.39F BEAUFORT ARPT CLOUDY 61 59 94 SE10G20 29.37F HILTON HEAD IS CLOUDY 61 61 100 SE9 29.42F WALTERBORO TSTM 61 59 94 E10G16 29.39F ALLENDALE RAIN 61 61 100 E13G21 29.33F ...SOUTHERN MIDLANDS AND PEE DEE... CITY SKY/WX TMP DP RH WIND PRES REMARKS GEORGETOWN CLOUDY 59 59 100 S6 29.47S KINGSTREE MOCLDY 61 59 94 E10 29.39F ORANGEBURG TSTM 61 60 97 E8 29.36F BARNWELL DRIZZLE 63 61 94 SE9 29.35R AIKEN RAIN 59 57 94 E7 29.38S MANNING FAIR 59 57 94 CALM 29.41F COLUMBIA RAIN 63 60 90 E7 29.37F SUMTER LGT RAIN 61 59 94 NE7 29.37F FLORENCE LGT RAIN 61 60 97 E10 29.44F MYRTLE BEACH MOCLDY 61 57 88 E9 29.47F N MYRTLE BEACH CLOUDY 60 59 96 E5 29.45F $$ GAZ063-065-086>088-099>101-113>116-118-119-134>141-150-230000- ...SOUTHEAST GEORGIA... CITY SKY/WX TMP DP RH WIND PRES REMARKS SAVANNAH ARPT TSTM 62 58 86 E14 29.37F HUNTER AAF TSTM 62 62 100 E16G24 29.34F FORT STEWART TSTM 63 59 88 E12 29.34R FOG STATESBORO TSTM 62 32 32 S7G17 29.31F SYLVANIA CLOUDY N/A N/A N/A SE9 29.34S CLAXTON MOCLDY N/A N/A N/A E7 29.34S ...CSRA...CENTRAL AND FAR SOUTHEAST GEORGIA... CITY SKY/WX TMP DP RH WIND PRES REMARKS THOMSON CLOUDY 63 63 99 SE12 29.34F AUGUSTA-BUSH LGT RAIN 63 59 87 E16G29 29.32F FOG AUGUSTA-DANIEL RAIN 61 58 90 E9 29.33F FOG SWAINSBORO CLOUDY 63 61 94 SE10G20 29.31F VIDALIA CLOUDY 64 64 100 SE12 29.32F EASTMAN LGT RAIN 67 67 100 SE7 29.29F HAZLEHURST CLOUDY 65 65 100 SE6 29.29F ALMA CLOUDY 65 65 100 SE6 29.31F WAYCROSS CLOUDY 69 69 100 SE7 29.33R THUNDER JESUP HVY RAIN 63 61 94 SE8G25 29.32F BAXLEY CLOUDY 64 64 100 S6 29.32S THUNDER BRUNSWICK TSTM 64 63 94 SE9 29.36F SAINT SIMONS CLOUDY 63 61 93 SE15G22 29.36F $$ SCZ027-028-034-036>038-045-046-048>050-GAZ119-141-230000- ...LAKE AND SUPPLEMENTAL COASTAL OBSERVATIONS... STATION/POSITION TIME TEMP WIND PRES WAVE SWELL AIR SEA DIR/SP/G HT/PER HT/PER/DIR (UTC) (F) (DEG/KT/KT) (MB) (FT/S) (FT/S/D) WINYAH BAY 2230 61 50/ 4 997.0F LAKE MURRAY 2250 62 100/ 8/ 11 994.9S ACE BASIN NERRS 2245 61 130/ 5 997.0F FORT PULASKI 2300 62 59 140/ 14/ 20 995.1 SAPELO ISLAND 2300 61 110/ 14 994.0 $$ ANZ835-935-AMZ111-154-330-350-352-354-370-450-454-472-230000- ...C-MAN AND BUOY OBSERVATIONS... STATION/POSITION TIME TEMP WIND PRES WAVE SWELL AIR SEA DIR/SP/G HT/PER HT/PER/DIR (UTC) (F) (DEG/KT/KT) (MB) (FT/S) (FT/S/D) BUOY 41004 2250 66 67 130/ 12/ 14 998.1F 5/ 8 5/180/ 8 BUOY 41008 2250 63 60 110/ 17/ 21 994.9F 4/ 7 2/120/14 FOLLY BEACH CMAN 2300 60 130/ 12/ 13 997.1F CAPERS NEARSHORE 2308 59 56 170/ 10/ 14 996.7F FRIPP NEARSHORE 2308 62 58 120/ 16/ 19 996.7F STATION/POSITION TIME TEMP WIND PRES WAVE SWELL AIR SEA DIR/SP/G HT/PER HT/PER/DIR (UTC) (F) (DEG/KT/KT) (MB) (FT/S) (FT/S/D) 5E ST. MARYS GA 2300 63 N/A 4/ 6 FRYING PAN BUOY 2310 66 64 160/ 16/ 21 999.0 BUOY 41025 2250 65 71 300/ 12/ 14 1001.2R 4/11 3/ 80/11 CAPE LOOKOUT NC 2300 60 360/ 5/ 6 1000.6F BUOY 41002 2250 73 71 180/ 16/ 19 1002.8F 10/ 8 7/120/13 BUOY 41010 NOT AVBL ST AUGUSTINE FL 2300 77 66 210/ 18/ 23 997.1F $$

USA.gov is the U.S. government's official web portal to all federal, state and local government web resources and services.